GW5972 Weather Reports


time (UTC)temp
F
wind
direction
speed
knots
gust
knots
rain 1hr
in
rain 24hr
in
rain mn
in
humidity
%
barometer
mb
20260505183837 52 43 0.0 0.9 0.00 0.00 0.00 67 1008.0
20260505183337 52 41 0.0 0.9 0.00 0.00 0.00 68 1008.0
20260505182837 53 4 0.9 2.6 0.00 0.00 0.00 67 1008.0
20260505182336 53 72 0.9 2.6 0.00 0.00 0.00 67 1008.0
20260505181836 53 89 0.0 0.0 0.00 0.00 0.00 68 1008.0
20260505180849 53 41 0.0 0.9 0.00 0.00 0.00 68 1008.0
20260505180338 53 40 0.0 0.9 0.00 0.00 0.00 68 1008.0
20260505175836 53 40 0.0 1.7 0.00 0.00 0.00 66 1008.0
20260505175337 53 67 0.9 2.6 0.00 0.00 0.00 66 1008.0
20260505174837 53 84 0.9 0.9 0.00 0.00 0.00 67 1008.0
20260505174338 53 96 0.0 0.9 0.00 0.00 0.00 67 1008.0
20260505173837 53 15 0.9 0.9 0.00 0.00 0.00 66 1008.0
20260505173337 53 33 0.9 0.9 0.00 0.00 0.00 66 1008.0
20260505172836 54 350 0.9 4.3 0.00 0.00 0.00 65 1008.0
20260505172337 54 65 1.7 1.7 0.00 0.00 0.00 65 1008.0
20260505171840 54 16 0.9 2.6 0.00 0.00 0.00 66 1008.0
20260505171337 54 138 0.0 1.7 0.00 0.00 0.00 66 1008.0
20260505170836 54 42 0.9 2.6 0.00 0.00 0.00 68 1008.0
20260505170336 54 67 0.9 1.7 0.00 0.00 0.00 67 1008.0
20260505165837 53 46 0.9 0.9 0.00 0.00 0.00 69 1008.0
20260505165337 54 350 0.9 0.9 0.00 0.00 0.00 68 1008.0
20260505164837 54 57 1.7 2.6 0.00 0.00 0.00 68 1008.0
20260505164336 54 109 0.9 2.6 0.00 0.00 0.00 69 1008.0
20260505163836 54 69 1.7 4.3 0.00 0.00 0.00 68 1008.0
20260505163337 54 89 0.0 1.7 0.00 0.00 0.00 69 1008.0
20260505162837 54 34 0.0 1.7 0.00 0.00 0.00 70 1008.0
20260505162337 54 86 0.0 2.6 0.00 0.00 0.00 68 1008.0
20260505161836 55 63 0.0 2.6 0.00 0.00 0.00 67 1008.0
20260505161336 55 37 0.0 5.2 0.00 0.00 0.00 67 1008.0
20260505160837 54 51 0.0 0.9 0.00 0.00 0.00 68 1008.0
20260505160337 54 71 0.9 1.7 0.00 0.00 0.00 67 1008.0
20260505153336 56 65 0.9 1.7 0.00 0.00 0.00 62 1008.0
20260505152836 56 85 0.0 0.9 0.00 0.00 0.00 61 1008.0
20260505152341 56 84 0.9 1.7 0.00 0.00 0.00 63 1008.0
20260505151836 55 102 0.0 1.7 0.00 0.00 0.00 62 1008.0
20260505151337 55 85 0.9 0.9 0.00 0.00 0.00 62 1008.0
20260505150837 56 73 0.0 4.3 0.00 0.00 0.00 63 1008.0
20260505150336 56 81 0.9 1.7 0.00 0.00 0.00 62 1008.0
20260505140337 55 91 0.9 1.7 0.00 0.00 0.00 64 1008.0
20260505124836 56 66 0.0 2.6 0.00 0.00 0.00 66 1009.0
20260505124336 56 74 0.9 2.6 0.00 0.00 0.00 66 1008.0
20260505123837 56 37 1.7 5.2 0.00 0.00 0.00 67 1008.0
20260505123339 55 55 0.9 1.7 0.00 0.00 0.00 69 1008.0
20260505122837 55 314 0.9 4.3 0.00 0.00 0.00 67 1008.0
20260505122336 55 43 0.9 2.6 0.00 0.00 0.00 67 1008.0
20260505121837 55 93 0.0 1.7 0.00 0.00 0.00 70 1008.0
20260505121336 56 72 1.7 2.6 0.00 0.00 0.00 67 1009.0
20260505120836 55 59 0.9 4.3 0.00 0.00 0.00 68 1008.0
20260505120337 57 43 1.7 2.6 0.00 0.00 0.00 68 1008.0
20260505115836 57 318 0.9 2.6 0.00 0.00 0.00 66 1008.0
20260505115336 57 63 0.9 2.6 0.00 0.00 0.00 65 1008.0
20260505114837 55 74 0.9 1.7 0.00 0.00 0.00 69 1008.0
20260505114337 55 102 0.9 0.9 0.00 0.00 0.00 71 1008.0
20260505113837 55 40 1.7 4.3 0.00 0.00 0.00 70 1009.0
20260505113336 55 65 2.6 2.6 0.00 0.00 0.00 70 1009.0
20260505112836 53 4 0.0 0.9 0.00 0.00 0.00 76 1009.0
20260505112336 52 100 0.0 0.9 0.00 0.00 0.00 75 1008.0
20260505111836 52 99 0.0 1.7 0.00 0.00 0.00 76 1009.0
20260505111337 51 100 0.0 0.9 0.00 0.00 0.00 82 1009.0
20260505110836 51 74 0.0 0.9 0.00 0.00 0.00 84 1009.0
20260505110336 51 204 0.9 0.9 0.00 0.00 0.00 84 1009.0
20260505101836 51 40 0.0 0.9 0.00 0.00 0.00 79 1009.0
20260505101336 52 311 0.0 1.7 0.00 0.00 0.00 80 1009.0
20260505100836 52 40 0.9 1.7 0.00 0.00 0.00 81 1009.0
20260505100337 53 21 0.9 6.1 0.00 0.00 0.00 78 1009.0
20260505095837 54 342 2.6 2.6 0.00 0.00 0.00 75 1009.0
20260505095341 54 32 1.7 4.3 0.00 0.00 0.00 74 1008.0
20260505094837 54 68 1.7 1.7 0.00 0.00 0.00 74 1008.0
20260505094336 54 97 0.9 0.9 0.00 0.00 0.00 74 1008.0
20260505093836 53 52 0.0 0.0 0.00 0.00 0.00 76 1008.0
20260505093336 53 51 0.9 0.9 0.00 0.00 0.00 74 1008.0
20260505092837 53 51 0.0 0.9 0.00 0.00 0.00 76 1009.0
20260505092337 53 48 0.0 2.6 0.00 0.00 0.00 77 1009.0
20260505091836 53 35 0.9 2.6 0.00 0.00 0.00 76 1009.0
20260505091336 53 352 0.0 1.7 0.00 0.00 0.00 77 1009.0
20260505090837 52 62 0.9 0.9 0.00 0.00 0.00 77 1008.0
20260505090336 52 46 0.9 1.7 0.00 0.00 0.00 77 1008.0
20260505085836 52 31 0.0 0.9 0.00 0.00 0.00 80 1009.0
20260505085337 52 26 0.9 1.7 0.00 0.00 0.00 80 1009.0
20260505084836 52 90 0.9 0.9 0.00 0.00 0.00 80 1009.0
20260505084336 51 90 0.9 0.9 0.00 0.00 0.00 80 1009.0
20260505083836 51 42 0.9 2.6 0.00 0.00 0.00 80 1009.0
20260505083336 51 5 0.9 0.9 0.00 0.00 0.00 80 1009.0
20260505082837 51 59 0.9 1.7 0.00 0.00 0.00 81 1009.0
20260505082337 51 60 0.0 1.7 0.00 0.00 0.00 82 1009.0
20260505081837 51 66 0.0 1.7 0.00 0.00 0.00 82 1009.0
20260505081336 51 33 0.0 2.6 0.00 0.00 0.00 81 1009.0
20260505080837 51 54 0.9 0.9 0.00 0.00 0.00 83 1009.0
20260505080337 51 54 0.0 0.9 0.00 0.00 0.00 83 1009.0
20260505075836 51 53 0.9 0.9 0.00 0.00 0.00 84 1009.0
20260505075336 51 87 0.0 0.9 0.00 0.00 0.00 84 1009.0
20260505074836 51 57 0.0 0.9 0.00 0.00 0.00 84 1009.0
20260505074337 51 55 0.0 0.0 0.00 0.00 0.00 85 1009.0
20260505073839 51 56 0.9 0.9 0.00 0.00 0.00 86 1009.0
20260505073336 50 80 0.0 0.0 0.00 0.00 0.00 87 1009.0
20260505072837 50 80 0.0 1.7 0.00 0.00 0.00 87 1009.0
20260505072337 50 65 0.0 0.0 0.00 0.00 0.00 88 1009.0
20260505071836 50 60 0.0 0.0 0.00 0.00 0.00 88 1008.0
20260505071336 50 60 0.0 0.9 0.00 0.00 0.00 88 1009.0
20260505070837 50 28 0.0 0.0 0.00 0.00 0.00 88 1008.0
20260505070336 50 76 0.0 0.9 0.00 0.00 0.00 88 1009.0
20260505065836 50 100 0.0 0.9 0.00 0.00 0.00 87 1009.0
20260505065336 50 91 0.0 0.9 0.00 0.00 0.00 87 1009.0
20260505064836 50 91 0.0 0.9 0.00 0.00 0.00 86 1009.0
20260505064337 50 72 0.0 0.9 0.00 0.00 0.00 86 1009.0
20260505063837 50 73 0.0 0.0 0.00 0.00 0.00 86 1009.0
20260505063337 50 73 0.0 0.9 0.00 0.00 0.00 86 1009.0
20260505062837 50 82 0.0 0.9 0.00 0.00 0.00 86 1009.0
20260505062336 50 70 0.0 0.9 0.00 0.00 0.00 86 1009.0
20260505061837 50 70 0.0 1.7 0.00 0.00 0.00 86 1009.0
20260505061338 50 71 0.9 0.9 0.00 0.00 0.00 87 1009.0
20260505060837 49 55 0.9 0.9 0.00 0.00 0.00 87 1009.0
20260505060336 49 56 0.0 0.9 0.00 0.00 0.00 87 1009.0
20260505055836 49 56 0.0 0.0 0.00 0.00 0.00 88 1009.0
20260505055336 49 51 0.0 0.0 0.00 0.00 0.00 88 1009.0
20260505054836 48 51 0.0 0.9 0.00 0.00 0.00 89 1009.0
20260505054337 48 46 0.0 0.9 0.00 0.00 0.00 90 1008.0
20260505053836 48 77 0.0 0.9 0.00 0.00 0.00 91 1009.0
20260505053336 48 77 0.0 0.9 0.00 0.00 0.00 91 1008.0
20260505052837 47 78 0.0 0.9 0.00 0.00 0.00 91 1009.0
20260505052336 47 77 0.0 0.9 0.00 0.00 0.00 91 1008.0
20260505051837 47 69 0.0 0.9 0.00 0.00 0.00 91 1008.0
20260505051337 47 69 0.0 0.9 0.00 0.00 0.00 92 1009.0
20260505050836 47 68 0.0 0.0 0.00 0.00 0.00 92 1009.0
20260505050337 46 68 0.0 0.0 0.00 0.00 0.00 92 1008.0
20260505041337 45 67 0.0 0.0 0.00 0.00 0.00 91 1008.0
20260505040837 45 67 0.0 0.0 0.00 0.00 0.00 91 1008.0
20260505040337 45 67 0.0 0.0 0.00 0.00 0.00 91 1008.0
20260505035836 45 67 0.0 0.0 0.00 0.00 0.00 91 1008.0
20260505035336 45 67 0.0 0.0 0.00 0.00 0.00 91 1008.0
20260505034837 45 67 0.0 0.0 0.00 0.00 0.00 92 1008.0
20260505034336 45 65 0.0 0.0 0.00 0.00 0.00 92 1008.0
20260505033837 45 65 0.0 0.0 0.00 0.00 0.00 92 1008.0
20260505033336 45 65 0.0 0.0 0.00 0.00 0.00 93 1008.0
20260505032836 45 86 0.0 0.9 0.00 0.00 0.00 93 1008.0
20260505032336 45 85 0.0 0.0 0.00 0.00 0.00 93 1009.0
20260505031836 45 85 0.0 0.0 0.00 0.00 0.00 93 1008.0
20260505031336 45 85 0.0 0.0 0.00 0.00 0.00 93 1008.0
20260505030837 45 85 0.0 0.9 0.00 0.00 0.00 94 1008.0
20260505030336 45 71 0.0 0.0 0.00 0.00 0.00 94 1009.0
20260505025836 45 66 0.0 0.0 0.00 0.00 0.00 94 1009.0
20260505025336 45 77 0.0 0.0 0.00 0.00 0.00 94 1008.0
20260505024836 46 77 0.0 0.0 0.00 0.00 0.00 94 1008.0
20260505024337 46 77 0.0 0.0 0.00 0.00 0.00 94 1009.0
20260505023836 45 77 0.0 0.9 0.00 0.00 0.00 94 1009.0
20260505023336 45 77 0.0 0.0 0.00 0.00 0.00 93 1008.0
20260505022837 46 77 0.0 0.0 0.00 0.00 0.00 93 1009.0
20260505022337 46 77 0.0 0.0 0.00 0.00 0.00 93 1008.0
20260505021838 46 77 0.0 0.0 0.00 0.00 0.00 93 1008.0
20260505021337 46 77 0.0 0.0 0.00 0.00 0.00 93 1009.0
20260505020836 46 77 0.0 0.0 0.00 0.00 0.00 93 1009.0
20260505020337 46 77 0.0 0.0 0.00 0.00 0.00 93 1009.0
20260505015837 46 77 0.0 0.0 0.00 0.00 0.00 93 1009.0
20260505015336 47 77 0.0 0.0 0.00 0.00 0.00 93 1009.0
20260505014837 47 77 0.0 0.0 0.00 0.00 0.00 93 1009.0
20260505014336 47 77 0.0 0.0 0.00 0.00 0.00 93 1009.0
20260505013836 47 77 0.0 0.0 0.00 0.00 0.00 93 1009.0
20260505013336 47 77 0.0 0.0 0.00 0.00 0.00 93 1009.0
20260505012836 47 77 0.0 0.9 0.00 0.00 0.00 93 1009.0
20260505012336 47 78 0.0 0.9 0.00 0.00 0.00 93 1009.0
20260505011836 47 77 0.0 0.9 0.00 0.00 0.00 93 1009.0
20260505011336 46 78 0.9 1.7 0.00 0.00 0.00 92 1009.0
20260505010837 46 78 0.0 0.0 0.00 0.00 0.00 92 1009.0
20260505010336 46 76 0.0 0.0 0.00 0.00 0.00 92 1009.0
20260505005837 46 76 0.0 0.0 0.00 0.00 0.00 92 1009.0
20260505005336 46 76 0.0 0.0 0.00 0.00 0.00 92 1009.0
20260505004837 46 79 0.0 0.0 0.00 0.00 0.00 91 1009.0
20260505004337 46 79 0.0 0.0 0.00 0.00 0.00 91 1009.0
20260505003837 46 79 0.0 0.0 0.00 0.00 0.00 91 1009.0
20260505003337 47 79 0.0 0.0 0.00 0.00 0.00 91 1009.0
20260505002836 47 79 0.0 0.0 0.00 0.00 0.00 90 1009.0
20260505002339 47 79 0.0 0.0 0.00 0.00 0.00 90 1009.0
20260505001837 47 79 0.0 0.9 0.00 0.00 0.00 90 1009.0
20260505001337 47 79 0.0 0.0 0.00 0.00 0.00 90 1009.0
20260505000836 47 79 0.0 0.0 0.00 0.00 0.00 90 1009.0
20260505000337 47 79 0.0 0.9 0.00 0.00 0.00 90 1009.0
20260504235836 48 79 0.0 0.0 0.00 0.00 0.00 89 1009.0
20260504235336 48 79 0.0 0.0 0.00 0.00 0.00 89 1009.0
20260504234840 48 79 0.0 0.0 0.00 0.00 0.00 89 1009.0
20260504234336 48 80 0.0 0.9 0.00 0.00 0.00 89 1009.0
20260504233836 48 80 0.0 0.0 0.00 0.00 0.00 89 1009.0
20260504233336 48 78 0.0 0.0 0.00 0.00 0.00 89 1009.0
20260504232836 48 79 0.0 0.0 0.00 0.00 0.00 89 1009.0
20260504232336 48 70 0.0 0.0 0.00 0.00 0.00 89 1009.0
20260504231837 48 70 0.0 0.9 0.00 0.00 0.00 89 1009.0
20260504231336 48 53 0.0 1.7 0.00 0.00 0.00 90 1009.0
20260504230837 48 63 0.0 0.0 0.00 0.00 0.00 90 1009.0
20260504230336 47 61 0.0 1.7 0.00 0.00 0.00 90 1009.0
20260504225836 47 80 0.0 0.0 0.00 0.00 0.00 90 1010.0
20260504225336 48 80 0.0 0.0 0.00 0.00 0.00 90 1009.0
20260504224837 47 80 0.0 0.9 0.00 0.00 0.00 90 1009.0
20260504224336 47 80 0.9 0.9 0.00 0.00 0.00 90 1009.0
20260504223837 47 76 0.0 0.0 0.00 0.00 0.00 90 1009.0
20260504223336 47 76 0.0 0.9 0.00 0.00 0.00 90 1010.0
20260504222836 47 77 0.0 0.0 0.00 0.00 0.00 89 1010.0
20260504222336 47 77 0.0 0.0 0.00 0.00 0.00 89 1010.0
20260504221836 48 77 0.0 0.0 0.00 0.00 0.00 88 1010.0
20260504221337 48 77 0.0 0.0 0.00 0.00 0.00 88 1010.0
20260504220837 48 77 0.0 0.0 0.00 0.00 0.00 88 1010.0
20260504220337 48 77 0.0 0.9 0.00 0.00 0.00 88 1010.0
20260504215837 48 47 0.0 0.9 0.00 0.00 0.00 87 1010.0
20260504215336 48 45 0.0 0.0 0.00 0.00 0.00 87 1010.0
20260504214836 48 45 0.0 0.0 0.00 0.00 0.00 86 1010.0
20260504214336 48 45 0.0 0.0 0.00 0.00 0.00 86 1010.0
20260504213837 48 45 0.0 0.0 0.00 0.00 0.00 86 1010.0
20260504213336 48 45 0.0 0.0 0.00 0.00 0.00 85 1010.0
20260504212838 48 45 0.0 0.0 0.00 0.00 0.00 85 1010.0
20260504212336 48 45 0.0 0.0 0.00 0.00 0.00 85 1010.0
20260504211837 48 45 0.0 0.0 0.00 0.00 0.00 84 1010.0
20260504211337 48 45 0.0 0.0 0.00 0.00 0.00 84 1010.0
20260504210837 48 38 0.0 0.0 0.00 0.00 0.00 84 1010.0
20260504210336 48 38 0.0 0.0 0.00 0.00 0.00 83 1010.0
20260504205836 48 38 0.0 0.0 0.00 0.00 0.00 83 1010.0
20260504205337 48 38 0.0 0.0 0.00 0.00 0.00 82 1010.0
20260504204836 49 38 0.0 0.0 0.00 0.00 0.00 82 1010.0
20260504204337 49 38 0.0 0.0 0.00 0.00 0.00 82 1010.0
20260504203836 49 38 0.0 0.0 0.00 0.00 0.00 81 1010.0
20260504203337 49 38 0.0 0.9 0.00 0.00 0.00 82 1010.0
20260504202837 49 38 0.0 0.0 0.00 0.00 0.00 81 1010.0
20260504202336 49 38 0.0 0.0 0.00 0.00 0.00 81 1010.0
20260504201837 49 38 0.0 1.7 0.00 0.00 0.00 82 1009.0
20260504201336 50 39 0.9 0.9 0.00 0.00 0.00 82 1010.0
20260504200836 50 38 0.0 0.9 0.00 0.00 0.00 81 1010.0
20260504200337 50 37 0.0 0.0 0.00 0.00 0.00 80 1010.0
20260504195842 50 37 0.0 0.0 0.00 0.00 0.00 79 1009.0
20260504195337 50 37 0.0 0.0 0.00 0.00 0.00 78 1009.0
20260504194836 50 37 0.0 0.0 0.00 0.00 0.00 78 1010.0
20260504194343 51 37 0.0 0.0 0.00 0.00 0.00 77 1009.0
20260504193837 51 37 0.9 0.9 0.00 0.00 0.00 77 1010.0
20260504193337 51 40 0.0 0.0 0.00 0.00 0.00 76 1009.0
20260504192837 51 352 0.0 0.0 0.00 0.00 0.00 76 1010.0
20260504192339 51 352 0.0 0.0 0.00 0.00 0.00 75 1009.0
20260504191836 51 338 0.9 0.9 0.00 0.00 0.00 75 1009.0
20260504191336 51 42 0.0 0.9 0.00 0.00 0.00 75 1009.0
20260504190836 52 332 0.9 4.3 0.00 0.00 0.00 75 1010.0
20260504190340 52 35 0.0 0.9 0.00 0.00 0.00 76 1009.0
20260504185837 52 99 0.0 0.9 0.00 0.00 0.00 77 1009.0
20260504185336 52 99 0.0 1.7 0.00 0.00 0.00 78 1009.0
20260504184841 52 347 0.9 0.9 0.00 0.00 0.00 78 1009.0
20260504184336 52 43 0.0 1.7 0.00 0.00 0.00 77 1009.0